AV357 Weather Reports


Display with metric or nautical units.
time (UTC)temp
F
wind
direction
speed
MPH
gust
MPH
rain 1hr
in
rain 24hr
in
rain mn
in
humidity
%
barometer
mb
20260507051503 46 309 0.0 1.0 0.00 0.03 0.00 85 1024.5
20260507051003 46 309 0.0 1.0 0.00 0.04 0.00 85 1024.4
20260507050503 46 298 0.0 1.0 0.00 0.04 0.00 85 1023.9
20260507050003 46 306 0.0 1.0 0.00 0.04 0.00 86 1024.4
20260507045503 45 307 0.0 1.0 0.00 0.04 0.00 88 1024.4
20260507045003 45 311 0.0 2.0 0.00 0.05 0.00 90 1024.5
20260507044503 44 310 1.0 2.0 0.00 0.06 0.00 90 1024.3
20260507044214 45 308 0.0 2.0 0.00 0.08 0.00 90 1024.4
20260507043503 45 0 0.0 0.0 0.00 0.13 0.00 92 1024.0
20260507043003 44 0 0.0 0.0 0.00 0.19 0.00 93 1024.1
20260507042503 44 291 0.0 1.0 0.00 0.24 0.00 93 1024.1
20260507042003 44 291 0.0 1.0 0.00 0.27 0.00 93 1024.1
20260507041503 44 0 0.0 0.0 0.00 0.30 0.00 92 1024.1
20260507041003 44 0 0.0 0.0 0.00 0.32 0.00 92 1024.1
20260507040503 44 0 0.0 0.0 0.00 0.33 0.00 92 1024.1
20260507040003 45 0 0.0 0.0 0.00 0.34 0.00 91 1024.0
20260507035503 44 0 0.0 0.0 0.00 0.35 0.00 91 1023.9
20260507035213 44 0 0.0 0.0 0.00 0.35 0.00 91 1024.0
20260507034503 44 0 0.0 0.0 0.00 0.37 0.00 91 1024.0
20260507034003 44 0 0.0 0.0 0.00 0.38 0.00 93 1024.0
20260507033503 45 0 0.0 0.0 0.00 0.40 0.00 93 1023.8
20260507033003 45 0 0.0 0.0 0.00 0.42 0.00 93 1023.8
20260507032503 45 0 0.0 0.0 0.00 0.42 0.00 93 1023.8
20260507032003 45 304 0.0 1.0 0.00 0.43 0.00 93 1023.8
20260507031503 45 304 0.0 1.0 0.00 0.43 0.00 93 1023.7
20260507031003 45 0 0.0 0.0 0.00 0.43 0.00 93 1023.7
20260507030503 45 74 0.0 1.0 0.00 0.43 0.00 93 1023.7
20260507030003 45 74 0.0 1.0 0.00 0.43 0.00 92 1023.8
20260507025503 46 73 0.0 1.0 0.00 0.43 0.00 92 1023.8
20260507025213 46 70 0.0 1.0 0.00 0.43 0.00 91 1023.4
20260507024503 46 310 0.0 1.0 0.00 0.43 0.00 89 1023.4
20260507024003 46 321 0.0 1.0 0.00 0.43 0.00 89 1023.6
20260507023503 46 25 0.0 1.0 0.00 0.43 0.00 90 1023.7
20260507023003 46 53 0.0 1.0 0.00 0.43 0.00 91 1023.6
20260507022503 46 39 0.0 1.0 0.00 0.43 0.00 88 1023.4
20260507022003 47 306 0.0 1.0 0.00 0.43 0.00 86 1023.6
20260507021503 47 302 0.0 1.0 0.00 0.43 0.00 87 1023.7
20260507021003 47 0 0.0 0.0 0.00 0.43 0.00 87 1023.6
20260507020503 47 0 0.0 0.0 0.00 0.43 0.00 87 1023.5
20260507020003 47 0 0.0 0.0 0.00 0.43 0.00 88 1023.7
20260507015503 47 0 0.0 0.0 0.00 0.43 0.00 88 1023.4
20260507015003 46 303 0.0 1.0 0.00 0.43 0.00 88 1023.5
20260507014503 46 301 1.0 2.0 0.00 0.43 0.00 89 1023.4
20260507014003 46 299 1.0 2.0 0.00 0.43 0.00 90 1023.6
20260507013503 46 296 0.0 1.0 0.00 0.43 0.00 91 1023.5
20260507013003 46 0 0.0 0.0 0.00 0.43 0.00 91 1023.3
20260507012503 46 0 0.0 0.0 0.00 0.43 0.00 92 1023.5
20260507012003 46 0 0.0 0.0 0.00 0.43 0.00 92 1023.3
20260507011503 46 55 0.0 1.0 0.00 0.43 0.00 92 1023.1
20260507011003 46 55 0.0 1.0 0.00 0.43 0.00 92 1023.3
20260507010714 46 57 0.0 1.0 0.00 0.43 0.00 91 1023.1
20260507010003 46 60 1.0 2.0 0.00 0.43 0.00 93 1023.4
20260507005503 46 62 0.0 2.0 0.00 0.43 0.00 92 1023.4
20260507005003 46 304 0.0 1.0 0.00 0.43 0.00 90 1023.2
20260507004503 46 295 1.0 1.0 0.00 0.43 0.00 88 1023.2
20260507004003 46 293 1.0 1.0 0.00 0.43 0.00 91 1023.3
20260507003713 46 295 0.0 1.0 0.00 0.43 0.00 91 1023.2
20260507003214 46 299 0.0 1.0 0.00 0.43 0.00 92 1023.0
20260507002503 47 40 0.0 1.0 0.00 0.43 0.00 92 1023.2
20260507002003 47 72 0.0 1.0 0.00 0.44 0.00 92 1023.0
20260507001503 47 0 0.0 0.0 0.00 0.44 0.00 91 1022.9
20260507001003 47 55 0.0 1.0 0.00 0.44 0.00 92 1022.8
20260507000503 47 58 0.0 1.0 0.00 0.45 0.00 92 1023.0
20260507000003 47 66 0.0 1.0 0.00 0.45 0.00 91 1022.6
20260506235713 47 0 0.0 0.0 0.00 0.45 0.00 90 1022.8
20260506235003 47 295 0.0 1.0 0.00 0.45 0.00 89 1022.8
20260506234503 47 353 0.0 1.0 0.00 0.45 0.00 90 1022.7
20260506234003 47 55 0.0 1.0 0.00 0.45 0.00 90 1022.5
20260506233503 47 349 0.0 1.0 0.00 0.45 0.00 91 1022.6
20260506233003 47 0 0.0 0.0 0.00 0.45 0.00 92 1022.7
20260506232503 47 303 0.0 1.0 0.00 0.45 0.00 92 1022.7
20260506232214 47 303 0.0 1.0 0.00 0.45 0.00 92 1022.6
20260506231503 47 341 0.0 1.0 0.00 0.45 0.00 92 1022.6
20260506231214 48 26 0.0 1.0 0.00 0.45 0.00 92 1022.7
20260506230503 48 54 0.0 1.0 0.00 0.45 0.00 91 1022.5
20260506230003 48 57 0.0 1.0 0.00 0.45 0.00 91 1022.5
20260506225713 48 57 0.0 1.0 0.00 0.45 0.00 92 1022.4
20260506225003 48 294 0.0 1.0 0.00 0.45 0.00 91 1022.6
20260506224503 48 352 0.0 1.0 0.00 0.45 0.00 92 1022.4
20260506224214 49 56 0.0 1.0 0.00 0.45 0.00 91 1022.3
20260506223503 49 64 0.0 1.0 0.00 0.45 0.00 91 1022.2
20260506223003 49 0 0.0 0.0 0.00 0.45 0.00 91 1022.2
20260506222503 49 0 0.0 0.0 0.00 0.45 0.00 91 1022.1
20260506222003 49 61 0.0 1.0 0.00 0.45 0.00 91 1021.9
20260506221504 49 64 0.0 2.0 0.00 0.45 0.00 91 1022.1
20260506221003 49 23 0.0 2.0 0.00 0.45 0.00 91 1022.0
20260506220503 49 297 0.0 2.0 0.00 0.45 0.00 91 1021.9
20260506220003 49 22 1.0 2.0 0.00 0.45 0.00 90 1021.7
20260506215503 50 67 1.0 2.0 0.00 0.45 0.45 91 1021.8
20260506215003 51 69 0.0 2.0 0.00 0.45 0.45 90 1021.5
20260506214503 51 0 0.0 0.0 0.00 0.45 0.45 88 1021.6
20260506214003 51 0 0.0 0.0 0.00 0.45 0.45 87 1021.6
20260506213503 51 0 0.0 0.0 0.00 0.45 0.45 87 1021.7
20260506213213 51 0 0.0 0.0 0.00 0.45 0.45 86 1021.5
20260506212714 51 33 0.0 1.0 0.00 0.45 0.45 88 1021.5
20260506212003 51 67 1.0 2.0 0.00 0.45 0.45 88 1021.6
20260506211503 51 68 1.0 2.0 0.00 0.45 0.45 90 1021.5
20260506211003 51 67 0.0 1.0 0.00 0.45 0.45 89 1021.4
20260506210714 52 68 0.0 1.0 0.00 0.45 0.45 89 1021.2
20260506210004 52 63 0.0 1.0 0.00 0.45 0.45 85 1021.2
20260506205503 52 63 0.0 1.0 0.00 0.45 0.45 86 1021.1
20260506205003 52 64 0.0 1.0 0.00 0.45 0.45 88 1020.9
20260506204503 52 58 0.0 2.0 0.00 0.45 0.45 87 1021.0
20260506204003 53 341 1.0 3.0 0.00 0.45 0.45 86 1021.2
20260506203503 53 303 0.0 3.0 0.00 0.45 0.45 81 1021.1
20260506203003 53 0 0.0 0.0 0.00 0.45 0.45 88 1021.0
20260506202503 53 70 0.0 2.0 0.00 0.45 0.45 87 1020.6
20260506202003 53 69 0.0 2.0 0.00 0.45 0.45 88 1020.7
20260506201503 54 65 0.0 1.0 0.00 0.45 0.45 87 1020.4
20260506201004 54 67 0.0 2.0 0.00 0.45 0.45 88 1020.4
20260506200503 54 67 1.0 2.0 0.00 0.45 0.45 88 1020.2
20260506200213 54 66 0.0 2.0 0.00 0.45 0.45 88 1019.9
20260506195504 55 307 0.0 1.0 0.00 0.45 0.45 85 1019.8
20260506195003 55 318 0.0 1.0 0.00 0.45 0.45 86 1019.7
20260506194503 55 72 1.0 3.0 0.00 0.45 0.45 86 1019.6
20260506194003 55 75 1.0 3.0 0.00 0.45 0.45 86 1019.3
20260506193503 56 65 0.0 2.0 0.00 0.45 0.45 85 1019.2
20260506193003 56 338 0.0 1.0 0.00 0.45 0.45 85 1018.9
20260506192504 56 43 0.0 3.0 0.00 0.45 0.45 85 1018.8
20260506192217 56 62 1.0 3.0 0.00 0.45 0.45 85 1018.6
20260506191713 57 63 0.0 3.0 0.00 0.45 0.45 84 1018.5
20260506191003 57 83 0.0 2.0 0.00 0.45 0.45 81 1018.3
20260506190503 58 80 1.0 3.0 0.00 0.45 0.45 80 1018.3
20260506190003 57 75 1.0 4.0 0.00 0.45 0.45 80 1018.1
20260506185713 57 82 1.0 4.0 0.00 0.45 0.45 80 1017.9
20260506185003 58 97 1.0 2.0 0.00 0.45 0.45 78 1017.6
20260506184713 58 82 1.0 2.0 0.00 0.45 0.45 78 1017.7
20260506184004 58 75 1.0 2.0 0.00 0.45 0.45 78 1017.3
20260506183503 58 97 1.0 2.0 0.00 0.45 0.45 76 1017.3
20260506183003 58 128 1.0 2.0 0.00 0.45 0.45 77 1017.2
20260506182503 59 133 1.0 2.0 0.00 0.45 0.45 78 1017.0
20260506182214 59 143 0.0 2.0 0.00 0.45 0.45 77 1016.8
20260506181503 60 138 0.0 1.0 0.00 0.45 0.45 75 1016.6
20260506181003 60 121 0.0 1.0 0.00 0.45 0.45 74 1016.5
20260506180503 60 135 0.0 1.0 0.00 0.45 0.45 76 1016.2
20260506180005 61 163 0.0 1.0 0.00 0.45 0.45 77 1016.1
20260506175503 61 131 0.0 2.0 0.00 0.45 0.45 77 1015.9
20260506175003 61 131 0.0 2.0 0.00 0.45 0.45 76 1015.7
20260506174503 62 0 0.0 0.0 0.00 0.45 0.45 76 1015.7
20260506174003 62 293 0.0 2.0 0.00 0.45 0.45 73 1015.5
20260506173503 62 295 0.0 2.0 0.00 0.45 0.45 73 1015.3
20260506173003 63 298 0.0 2.0 0.00 0.45 0.45 72 1015.5
20260506172503 63 291 1.0 2.0 0.00 0.45 0.45 71 1015.2
20260506172003 63 296 1.0 2.0 0.00 0.45 0.45 70 1015.5
20260506171712 63 306 0.0 1.0 0.00 0.45 0.45 70 1015.2
20260506171003 63 291 0.0 2.0 0.00 0.45 0.45 70 1015.2
20260506170503 63 290 1.0 3.0 0.00 0.45 0.45 69 1015.2
20260506170003 63 288 2.0 3.0 0.00 0.45 0.45 70 1015.5
20260506165503 63 288 2.0 3.0 0.00 0.45 0.45 70 1015.4
20260506165003 64 288 1.0 3.0 0.00 0.45 0.45 70 1015.0
20260506164503 67 272 1.0 3.0 0.00 0.45 0.45 65 1014.4
20260506164213 67 244 1.0 3.0 0.00 0.45 0.45 63 1014.4
20260506163712 67 289 1.0 4.0 0.00 0.45 0.45 61 1014.2
20260506163003 67 287 2.0 6.0 0.00 0.45 0.45 62 1014.5
20260506162503 66 287 1.0 6.0 0.00 0.45 0.45 63 1014.6
20260506162003 67 285 1.0 3.0 0.00 0.45 0.45 61 1014.3
20260506161503 67 293 1.0 2.0 0.00 0.45 0.45 63 1014.4
20260506161003 66 282 1.0 3.0 0.00 0.45 0.45 63 1014.4
20260506160503 66 280 1.0 3.0 0.00 0.45 0.45 63 1014.5
20260506160003 64 261 1.0 3.0 0.00 0.45 0.45 65 1014.8
20260506155503 64 181 1.0 3.0 0.00 0.45 0.45 65 1015.0
20260506155213 64 177 1.0 3.0 0.00 0.45 0.45 66 1014.8
20260506154504 65 231 1.0 3.0 0.00 0.45 0.45 65 1014.8
20260506154003 65 116 0.0 2.0 0.00 0.45 0.45 65 1014.7
20260506153503 65 127 0.0 2.0 0.00 0.45 0.45 67 1014.9
20260506153003 65 177 1.0 4.0 0.00 0.45 0.45 67 1014.9
20260506152503 65 251 1.0 4.0 0.00 0.45 0.45 67 1014.9
20260506152213 65 306 1.0 3.0 0.00 0.45 0.45 65 1015.0
20260506151714 65 326 1.0 3.0 0.00 0.45 0.45 64 1015.0
20260506151003 65 236 1.0 3.0 0.00 0.45 0.45 63 1014.8
20260506150503 64 92 1.0 3.0 0.00 0.45 0.45 63 1014.9
20260506150004 65 73 1.0 6.0 0.00 0.45 0.45 63 1014.8
20260506145503 64 74 2.0 7.0 0.00 0.45 0.45 64 1014.9
20260506145003 65 77 2.0 9.0 0.00 0.45 0.45 65 1014.9
20260506144503 66 79 1.0 9.0 0.00 0.45 0.45 64 1014.8
20260506144003 65 103 1.0 4.0 0.00 0.45 0.45 63 1014.9
20260506143503 66 146 1.0 4.0 0.00 0.45 0.45 64 1014.8
20260506143003 67 273 2.0 8.0 0.00 0.45 0.45 64 1014.5
20260506142503 67 221 3.0 8.0 0.00 0.45 0.45 63 1014.4
20260506142003 67 178 2.0 6.0 0.00 0.45 0.45 63 1014.7
20260506141713 68 250 2.0 9.0 0.00 0.45 0.45 63 1014.3
20260506141003 67 255 3.0 9.0 0.00 0.45 0.45 63 1014.6
20260506140503 67 156 2.0 4.0 0.00 0.45 0.45 59 1014.7
20260506140003 69 209 2.0 6.0 0.00 0.45 0.45 61 1014.5
20260506135503 68 235 2.0 6.0 0.00 0.45 0.45 63 1014.4
20260506135003 67 264 2.0 6.0 0.00 0.45 0.45 63 1014.8
20260506134503 67 284 2.0 6.0 0.00 0.45 0.45 61 1014.9
20260506134003 69 215 1.0 4.0 0.00 0.45 0.45 62 1014.8
20260506133503 67 129 2.0 8.0 0.00 0.45 0.45 64 1015.0
20260506133214 65 157 3.0 8.0 0.00 0.45 0.45 65 1015.0
20260506132503 66 187 3.0 7.0 0.00 0.45 0.45 66 1014.9
20260506132003 65 148 3.0 7.0 0.00 0.45 0.45 65 1015.1
20260506131503 65 165 3.0 7.0 0.00 0.45 0.45 66 1015.1
20260506131003 66 185 2.0 7.0 0.00 0.45 0.45 66 1015.2
20260506130503 65 192 2.0 7.0 0.00 0.45 0.45 66 1015.4
20260506130003 64 221 3.0 8.0 0.00 0.45 0.45 67 1015.5
20260506125503 63 227 3.0 8.0 0.00 0.45 0.45 69 1015.3
20260506125003 64 167 3.0 7.0 0.00 0.45 0.45 70 1015.4
20260506124503 64 152 2.0 6.0 0.00 0.45 0.45 70 1015.3
20260506124214 64 171 1.0 4.0 0.00 0.45 0.45 68 1015.3
20260506123503 64 239 1.0 4.0 0.00 0.45 0.45 70 1015.3
20260506123214 64 246 1.0 4.0 0.00 0.45 0.45 70 1015.5
20260506122503 64 275 1.0 4.0 0.00 0.45 0.45 68 1015.3
20260506122003 64 57 2.0 6.0 0.00 0.45 0.45 68 1015.1
20260506121503 65 64 2.0 6.0 0.00 0.45 0.45 68 1014.9
20260506121214 65 69 2.0 7.0 0.00 0.45 0.45 68 1015.1
20260506120713 64 76 3.0 7.0 0.00 0.45 0.45 69 1015.3
20260506120003 65 75 2.0 7.0 0.00 0.45 0.45 68 1014.9
20260506115503 66 97 1.0 6.0 0.00 0.45 0.45 67 1014.9
20260506115003 65 21 1.0 4.0 0.00 0.45 0.45 66 1015.0
20260506114503 65 55 1.0 3.0 0.00 0.45 0.45 66 1015.1
20260506114213 64 24 1.0 3.0 0.00 0.45 0.45 67 1015.1
20260506113503 65 351 1.0 6.0 0.00 0.45 0.45 65 1015.2
20260506113003 64 97 1.0 6.0 0.00 0.45 0.45 67 1015.3
20260506112503 63 101 2.0 6.0 0.00 0.45 0.45 70 1015.6
20260506112213 64 75 1.0 6.0 0.00 0.45 0.45 67 1015.4
20260506111712 64 68 2.0 6.0 0.00 0.45 0.45 68 1015.2
20260506111003 64 76 1.0 6.0 0.00 0.45 0.45 70 1015.6
20260506110503 64 95 1.0 6.0 0.00 0.45 0.45 71 1015.5
20260506110003 62 117 1.0 4.0 0.00 0.45 0.45 73 1015.8
20260506105503 62 93 2.0 8.0 0.00 0.45 0.45 73 1015.9
20260506105003 62 68 1.0 8.0 0.00 0.45 0.45 72 1015.9
20260506104503 63 102 1.0 4.0 0.00 0.45 0.45 71 1015.9
20260506104003 62 131 2.0 8.0 0.00 0.45 0.45 70 1015.9
20260506103503 61 153 2.0 8.0 0.00 0.45 0.45 71 1016.4
20260506103003 61 156 2.0 4.0 0.00 0.45 0.45 70 1016.4
20260506102503 61 183 2.0 6.0 0.00 0.45 0.45 69 1016.1
20260506102003 61 176 2.0 6.0 0.00 0.45 0.45 69 1016.3
20260506101503 60 140 1.0 6.0 0.00 0.45 0.45 72 1016.3
20260506101003 61 130 1.0 2.0 0.00 0.45 0.45 71 1016.2
20260506100714 62 125 1.0 2.0 0.00 0.45 0.45 69 1016.1
20260506100004 60 141 1.0 4.0 0.00 0.45 0.45 70 1016.3
20260506095503 61 143 2.0 4.0 0.00 0.45 0.45 71 1016.3
20260506095003 60 148 2.0 4.0 0.00 0.45 0.45 68 1016.4
20260506094503 60 134 2.0 6.0 0.00 0.45 0.45 70 1016.8
20260506094003 61 124 2.0 6.0 0.00 0.45 0.45 68 1016.4
20260506093503 62 126 1.0 4.0 0.00 0.45 0.45 70 1016.5
20260506093004 60 137 1.0 4.0 0.00 0.45 0.45 75 1016.6
20260506092503 60 144 1.0 4.0 0.00 0.45 0.45 75 1016.7
20260506092008 59 154 1.0 3.0 0.00 0.45 0.45 75 1016.6
20260506091713 59 110 1.0 3.0 0.00 0.45 0.45 72 1016.8
20260506091003 59 70 1.0 3.0 0.00 0.45 0.45 73 1016.9
20260506090503 59 74 1.0 4.0 0.00 0.45 0.45 72 1016.8
20260506090003 60 68 1.0 4.0 0.00 0.45 0.45 75 1016.7
20260506085503 59 68 1.0 3.0 0.00 0.45 0.45 78 1017.1
20260506085003 58 77 2.0 4.0 0.00 0.45 0.45 76 1017.0
20260506084503 59 69 2.0 4.0 0.00 0.45 0.45 77 1016.8
20260506084212 60 64 1.0 4.0 0.00 0.45 0.45 74 1016.7
20260506083503 63 342 0.0 1.0 0.00 0.45 0.45 65 1016.3
20260506083212 62 24 0.0 2.0 0.00 0.45 0.45 66 1016.4
20260506082713 62 43 1.0 2.0 0.00 0.45 0.45 69 1016.4
20260506082003 61 47 1.0 4.0 0.00 0.45 0.45 67 1016.8
20260506081503 60 355 1.0 2.0 0.00 0.45 0.45 72 1016.7
20260506081003 59 322 1.0 2.0 0.00 0.45 0.45 71 1016.7
20260506080503 59 358 1.0 3.0 0.00 0.45 0.45 72 1017.0
20260506073503 58 18 0.0 2.0 0.00 0.45 0.45 81 1017.5
20260506073003 57 314 1.0 3.0 0.00 0.45 0.45 83 1017.4
20260506072503 56 305 0.0 3.0 0.00 0.45 0.45 84 1017.7
20260506072214 56 308 0.0 2.0 0.00 0.45 0.45 83 1017.6
20260506071503 55 47 0.0 1.0 0.00 0.45 0.45 89 1018.0
20260506071003 54 54 0.0 1.0 0.00 0.45 0.45 91 1018.0
20260506070503 53 61 0.0 1.0 0.00 0.45 0.45 93 1018.1
20260506070214 52 348 0.0 2.0 0.01 0.45 0.45 93 1018.4
20260506062503 51 0 0.0 0.0 0.03 0.45 0.45 97 1018.9
20260506062003 51 0 0.0 0.0 0.03 0.45 0.45 98 1019.0
20260506061503 51 0 0.0 0.0 0.03 0.45 0.45 98 1018.9
20260506061003 51 78 0.0 1.0 0.04 0.45 0.45 98 1019.0
20260506060503 51 78 0.0 1.0 0.04 0.45 0.45 98 1019.1